FW3072 Weather Reports


Display with metric or nautical units.
time (UTC)temp
F
wind
direction
speed
MPH
gust
MPH
rain 1hr
in
rain 24hr
in
rain mn
in
humidity
%
barometer
mb
20211129115202 29 5 0.0 0.0 0.00 0.06 0.00 89 1016.2
20211129114202 29 5 0.0 0.0 0.00 0.06 0.00 89 1016.2
20211129113202 29 5 0.0 0.0 0.00 0.06 0.00 89 1016.1
20211129112201 29 5 0.0 0.0 0.00 0.06 0.00 89 1015.8
20211129111202 29 5 0.0 0.0 0.00 0.06 0.00 89 1015.7
20211129110205 29 5 0.0 0.0 0.00 0.06 0.00 89 1015.6
20211129105203 29 5 0.0 1.0 0.00 0.06 0.00 89 1015.4
20211129104203 29 5 0.0 0.0 0.00 0.06 0.00 89 1015.2
20211129103204 29 5 0.0 0.0 0.00 0.06 0.00 89 1014.9
20211129102201 29 5 0.0 0.0 0.00 0.06 0.00 90 1014.8
20211129101202 29 5 0.0 3.0 0.00 0.06 0.00 90 1014.7
20211129100202 29 347 0.0 0.0 0.00 0.06 0.00 90 1014.7
20211129095203 29 347 0.0 1.0 0.00 0.06 0.00 90 1014.5
20211129094202 29 346 0.0 2.0 0.00 0.06 0.00 90 1014.3
20211129093201 29 347 0.0 1.0 0.00 0.06 0.00 90 1014.4
20211129092202 28 347 0.0 2.0 0.00 0.06 0.00 90 1014.3
20211129091202 28 346 0.0 2.0 0.00 0.06 0.00 90 1014.2
20211129090202 29 346 0.0 1.0 0.00 0.06 0.00 89 1014.2
20211129085201 29 347 0.0 1.0 0.00 0.06 0.00 89 1014.0
20211129084202 29 347 0.0 1.0 0.00 0.06 0.00 89 1013.9
20211129083201 30 347 0.0 2.0 0.00 0.06 0.00 90 1013.7
20211129082202 30 346 0.0 3.0 0.00 0.06 0.00 90 1013.6
20211129081201 30 5 1.0 3.0 0.00 0.06 0.00 89 1013.7
20211129080203 30 360 0.0 3.0 0.00 0.06 0.00 90 1013.6
20211129075204 30 348 2.0 4.0 0.00 0.06 0.00 90 1013.5
20211129074202 30 342 0.0 3.0 0.00 0.06 0.00 90 1013.5
20211129073201 30 341 0.0 3.0 0.00 0.06 0.00 90 1013.4
20211129072202 30 336 1.0 3.0 0.00 0.06 0.00 90 1013.3
20211129071202 30 71 1.0 3.0 0.00 0.06 0.00 90 1013.2
20211129070203 30 71 0.0 5.0 0.00 0.06 0.00 90 1013.1
20211129065202 30 44 2.0 7.0 0.00 0.06 0.00 90 1013.1
20211129064201 31 348 0.0 3.0 0.00 0.06 0.00 90 1013.1
20211129063202 31 343 0.0 3.0 0.00 0.06 0.00 90 1012.8
20211129062201 31 348 1.0 2.0 0.00 0.06 0.00 90 1012.8
20211129061202 31 314 1.0 3.0 0.00 0.06 0.00 90 1012.6
20211129060201 31 303 1.0 4.0 0.00 0.06 0.00 90 1012.4
20211129055202 31 322 1.0 4.0 0.00 0.06 0.00 90 1012.4
20211129054202 31 340 0.0 3.0 0.00 0.06 0.00 90 1012.3
20211129053202 31 340 0.0 3.0 0.00 0.06 0.00 90 1012.2
20211129052202 31 339 0.0 2.0 0.00 0.06 0.00 90 1012.1
20211129051202 31 339 1.0 3.0 0.00 0.06 0.00 90 1012.0
20211129050201 31 354 0.0 3.0 0.00 0.06 0.00 90 1012.0
20211129045202 30 354 0.0 3.0 0.00 0.06 0.06 90 1011.9
20211129044204 30 36 0.0 2.0 0.00 0.06 0.06 90 1011.8
20211129043201 30 36 0.0 3.0 0.00 0.06 0.06 90 1011.6
20211129042202 30 4 1.0 3.0 0.00 0.06 0.06 90 1011.6
20211129041201 30 16 0.0 4.0 0.00 0.06 0.06 90 1011.5
20211129040203 30 333 0.0 5.0 0.00 0.06 0.06 90 1011.5
20211129035202 30 359 1.0 6.0 0.00 0.06 0.06 90 1011.4
20211129034202 30 50 0.0 4.0 0.00 0.06 0.06 90 1011.3
20211129033202 30 37 2.0 4.0 0.00 0.06 0.06 90 1011.2
20211129032201 31 9 1.0 6.0 0.00 0.06 0.06 90 1011.2
20211129031202 31 34 2.0 4.0 0.00 0.06 0.06 90 1011.1
20211129030202 31 346 1.0 3.0 0.00 0.06 0.06 90 1011.0
20211129025202 31 1 1.0 7.0 0.00 0.06 0.06 90 1010.9
20211129024202 31 358 3.0 6.0 0.00 0.06 0.06 90 1010.8
20211129023201 31 25 0.0 8.0 0.00 0.06 0.06 90 1010.7
20211129022202 31 326 3.0 8.0 0.00 0.06 0.06 90 1010.7
20211129021201 31 354 0.0 5.0 0.00 0.06 0.06 90 1010.7
20211129020202 31 327 4.0 10.0 0.00 0.06 0.06 90 1010.6
20211129015201 32 315 2.0 9.0 0.00 0.06 0.06 90 1010.5
20211129014202 32 335 4.0 10.0 0.00 0.06 0.06 90 1010.4
20211129013202 32 324 5.0 9.0 0.00 0.06 0.06 90 1010.3
20211129012202 32 318 2.0 9.0 0.00 0.06 0.06 90 1010.1
20211129011204 32 314 1.0 10.0 0.00 0.06 0.06 90 1010.1
20211129010203 32 304 3.0 12.0 0.00 0.06 0.06 90 1010.0
20211129005202 32 313 4.0 12.0 0.00 0.06 0.06 90 1010.0
20211129004203 32 273 5.0 11.0 0.00 0.06 0.06 90 1009.7
20211129003202 32 255 3.0 9.0 0.00 0.06 0.06 90 1009.5
20211129002201 32 251 2.0 4.0 0.00 0.06 0.06 90 1009.5
20211129001202 32 273 3.0 8.0 0.00 0.06 0.06 90 1009.4
20211129000204 32 254 2.0 7.0 0.00 0.06 0.06 90 1009.4
20211128235202 32 267 3.0 8.0 0.00 0.06 0.06 90 1009.3
20211128234202 32 261 1.0 5.0 0.00 0.06 0.06 90 1009.2
20211128233201 32 252 1.0 6.0 0.00 0.06 0.06 90 1009.0
20211128232202 32 261 2.0 6.0 0.00 0.06 0.06 89 1008.8
20211128231203 32 281 2.0 5.0 0.00 0.06 0.06 89 1008.7
20211128230202 32 253 1.0 3.0 0.00 0.06 0.06 89 1008.6
20211128225202 32 279 0.0 4.0 0.00 0.06 0.06 89 1008.5
20211128224202 32 267 0.0 5.0 0.00 0.06 0.06 89 1008.5
20211128223203 32 274 1.0 6.0 0.00 0.06 0.06 89 1008.4
20211128222202 32 266 2.0 4.0 0.00 0.06 0.06 89 1008.4
20211128221201 32 287 1.0 4.0 0.00 0.06 0.06 89 1008.4
20211128220204 32 300 3.0 7.0 0.00 0.06 0.06 89 1008.4
20211128215202 32 306 5.0 8.0 0.01 0.06 0.06 89 1008.3
20211128214202 32 283 2.0 6.0 0.01 0.06 0.06 89 1008.2
20211128213202 32 274 2.0 6.0 0.01 0.06 0.06 89 1008.1
20211128212202 32 277 3.0 6.0 0.01 0.06 0.06 89 1007.9
20211128211201 33 244 0.0 4.0 0.01 0.06 0.06 89 1007.9
20211128210202 33 272 1.0 3.0 0.00 0.05 0.05 89 1007.8
20211128205204 33 310 1.0 4.0 0.02 0.05 0.05 89 1007.3
20211128204202 33 284 1.0 5.0 0.02 0.05 0.05 89 1007.4
20211128203203 33 342 2.0 4.0 0.01 0.04 0.04 89 1007.3
20211128202201 33 304 2.0 5.0 0.01 0.04 0.04 89 1007.4
20211128201203 33 321 3.0 6.0 0.01 0.04 0.04 89 1007.3
20211128200202 33 294 3.0 9.0 0.00 0.03 0.03 89 1007.2
20211128195201 33 279 3.0 11.0 0.01 0.03 0.03 89 1007.2
20211128194202 33 275 5.0 10.0 0.01 0.03 0.03 89 1007.2
20211128193203 33 226 2.0 4.0 0.01 0.03 0.03 89 1007.1
20211128192202 33 111 0.0 2.0 0.00 0.02 0.02 89 1007.1
20211128191202 33 111 0.0 1.0 0.00 0.02 0.02 88 1007.0
20211128190201 33 111 0.0 0.0 0.00 0.02 0.02 88 1006.9
20211128185202 33 111 0.0 1.0 0.01 0.02 0.02 88 1006.8
20211128184205 33 111 0.0 1.0 0.01 0.02 0.02 88 1006.9
20211128183201 34 111 0.0 2.0 0.01 0.02 0.02 88 1006.8
20211128182203 33 111 0.0 1.0 0.00 0.01 0.01 88 1006.6
20211128181202 33 111 1.0 2.0 0.00 0.01 0.01 88 1006.8
20211128180202 33 111 1.0 2.0 0.00 0.01 0.01 88 1006.8
20211128175202 33 111 0.0 1.0 0.01 0.01 0.01 88 1006.8
20211128174202 33 111 0.0 2.0 0.01 0.01 0.01 88 1006.8
20211128173203 33 111 0.0 3.0 0.00 0.00 0.00 88 1007.0
20211128172201 33 111 1.0 2.0 0.00 0.00 0.00 88 1007.1
20211128171202 33 111 0.0 1.0 0.00 0.00 0.00 88 1007.2
20211128170203 33 111 0.0 1.0 0.00 0.00 0.00 88 1007.3
20211128165203 33 111 0.0 3.0 0.00 0.00 0.00 88 1007.4
20211128164203 33 111 1.0 3.0 0.00 0.00 0.00 88 1007.6
20211128163202 33 111 1.0 2.0 0.00 0.00 0.00 88 1007.7
20211128162205 33 111 0.0 2.0 0.00 0.00 0.00 89 1007.9
20211128161204 32 111 1.0 3.0 0.00 0.00 0.00 89 1008.0
20211128160202 32 111 1.0 2.0 0.00 0.00 0.00 89 1008.2
20211128155202 32 111 1.0 2.0 0.00 0.00 0.00 89 1008.5
20211128154203 32 111 0.0 3.0 0.00 0.00 0.00 89 1008.7
20211128153202 31 111 1.0 2.0 0.00 0.00 0.00 90 1008.8
20211128152203 31 111 0.0 0.0 0.00 0.00 0.00 89 1008.9
20211128151204 31 111 0.0 0.0 0.00 0.00 0.00 90 1009.0
20211128150202 31 111 0.0 0.0 0.00 0.00 0.00 90 1009.1
20211128145202 31 111 0.0 0.0 0.00 0.00 0.00 90 1009.0
20211128144203 30 111 0.0 0.0 0.00 0.00 0.00 90 1009.0
20211128143202 30 111 0.0 0.0 0.00 0.00 0.00 90 1009.0
20211128142202 30 111 0.0 0.0 0.00 0.00 0.00 90 1008.9
20211128141204 30 111 0.0 0.0 0.00 0.00 0.00 90 1008.9
20211128140202 30 111 0.0 0.0 0.00 0.00 0.00 90 1008.8
20211128135201 30 111 0.0 0.0 0.00 0.00 0.00 90 1008.9
20211128134202 29 111 0.0 0.0 0.00 0.00 0.00 90 1008.9
20211128133202 29 111 0.0 2.0 0.00 0.00 0.00 90 1008.8
20211128132204 29 111 1.0 2.0 0.00 0.00 0.00 90 1008.9
20211128131203 29 111 0.0 1.0 0.00 0.00 0.00 90 1009.1
20211128130202 29 111 0.0 2.0 0.00 0.00 0.00 90 1009.1
20211128125203 29 111 0.0 2.0 0.00 0.00 0.00 90 1008.9
20211128124202 29 111 0.0 1.0 0.00 0.00 0.00 90 1009.0
20211128123204 29 111 0.0 2.0 0.00 0.00 0.00 90 1008.9
20211128122202 29 111 0.0 2.0 0.00 0.00 0.00 90 1009.0
20211128121204 29 111 1.0 3.0 0.00 0.00 0.00 90 1008.9
20211128120202 29 111 0.0 2.0 0.00 0.00 0.00 90 1009.0